Three Rivers, MI

8:42 PM EST on December 07, 2016 (GMT -0500)
Three Rivers Municipal-Haines

Weather History for KHAI - April, 2013

Change the Weather History Date:

Monday, April 8, 2013

  Actual Average Record
Temperature  
Mean Temperature 52 °F -  
Max Temperature 66 °F 55 °F 80 °F (1991)
Min Temperature 37 °F 32 °F 12 °F (1972)
Degree Days  
Heating Degree Days 14    
Growing Degree Days 2 (Base 50)    
Moisture  
Dew Point 40 °F    
Average Humidity 74    
Maximum Humidity 90    
Minimum Humidity 52    
Precipitation  
Precipitation 0.00 in - - ()
Sea Level Pressure  
Sea Level Pressure 29.86 in    
Wind  
Wind Speed 8 mph (SSE)    
Max Wind Speed 28 mph    
Max Gust Speed 43 mph    
Visibility 9 miles    
Events Rain    
Averages and records for this station are not official NWS values.
T = Trace of Precipitation, MM = Missing Value Source: NWS Daily Summary

Daily Weather History Graph

Daily Weather History Graph

Search for Another Location

Airport or City:

Trip Planner

Search our weather history database for the weather conditions in past years. The results will help you decide how hot, cold, wet, or windy it might be!

Date:

Astronomy

Apr. 08, 2013 Rise Set
Actual Time 7:12 AM EDT 8:16 PM EDT
Civil Twilight 6:44 AM EDT 8:44 PM EDT
Nautical Twilight 6:10 AM EDT 9:18 PM EDT
Astronomical Twilight 5:34 AM EDT 9:54 PM EDT
Moon 6:04 AM EDT 6:48 PM EDT
Length of Visible Light 14h 00m
Length of Day
13h 03m
Waning Crescent, 3% of the Moon is Illuminated
Apr 8
Waning Crescent
Apr 10
New
Apr 18
First Quarter
Apr 25
Full
May 2
Last Quarter

Hourly Weather History & Observations

Time (EDT) Temp. Windchill Dew Point Humidity Pressure Visibility Wind Dir Wind Speed Gust Speed Precip Events Conditions
12:14 AM 38.5 °F - 31.6 °F 76% 29.99 in 10.0 mi Calm Calm - N/A   Clear
12:35 AM 39.2 °F - 31.5 °F 74% 29.99 in 10.0 mi Calm Calm - N/A   Clear
12:54 AM 37.4 °F - 30.4 °F 76% 29.99 in 10.0 mi Calm Calm - N/A   Clear
1:14 AM 38.1 °F 34.6 °F 31.1 °F 76% 29.99 in 10.0 mi East 4.6 mph - N/A   Clear
1:35 AM 38.8 °F 34.6 °F 31.6 °F 75% 29.98 in 10.0 mi East 5.8 mph - N/A   Clear
1:54 AM 39.4 °F 34.5 °F 31.6 °F 74% 29.97 in 10.0 mi East 6.9 mph - N/A   Clear
2:14 AM 39.6 °F 36.3 °F 31.6 °F 73% 29.98 in 10.0 mi East 4.6 mph - N/A   Clear
2:35 AM 39.9 °F 36.7 °F 31.6 °F 72% 29.97 in 10.0 mi East 4.6 mph - N/A   Clear
2:54 AM 39.0 °F 34.8 °F 31.5 °F 74% 29.96 in 10.0 mi East 5.8 mph - N/A   Clear
3:14 AM 39.6 °F 37.4 °F 31.6 °F 73% 29.97 in 10.0 mi ESE 3.5 mph - N/A   Clear
3:35 AM 39.7 °F 35.6 °F 31.8 °F 73% 29.96 in 10.0 mi ESE 5.8 mph - N/A   Clear
3:54 AM 39.6 °F 34.7 °F 31.8 °F 74% 29.96 in 10.0 mi ESE 6.9 mph - N/A   Clear
4:15 AM 39.4 °F 35.2 °F 32.0 °F 75% 29.95 in 10.0 mi ESE 5.8 mph - N/A   Clear
4:35 AM 39.9 °F 34.5 °F 32.0 °F 73% 29.94 in 10.0 mi ESE 8.1 mph - N/A   Clear
4:54 AM 40.5 °F 34.1 °F 32.0 °F 72% 29.93 in 10.0 mi ESE 10.4 mph - N/A   Clear
5:15 AM 41.0 °F 34.7 °F 32.5 °F 72% 29.92 in 10.0 mi ESE 10.4 mph 16.1 mph N/A   Clear
5:34 AM 41.0 °F 36.4 °F 32.4 °F 71% 29.92 in 10.0 mi ESE 6.9 mph - N/A   Clear
5:54 AM 41.0 °F 34.3 °F 32.5 °F 72% 29.90 in 10.0 mi ESE 11.5 mph 16.1 mph N/A   Clear
6:15 AM 41.0 °F 34.7 °F 32.5 °F 72% 29.90 in 10.0 mi SE 10.4 mph - N/A   Clear
6:34 AM 41.0 °F 36.4 °F 32.9 °F 73% 29.89 in 10.0 mi ESE 6.9 mph - N/A   Clear
6:54 AM 41.2 °F 35.5 °F 33.1 °F 73% 29.89 in 10.0 mi ESE 9.2 mph - N/A   Clear
7:14 AM 41.5 °F 37.1 °F 33.3 °F 72% 29.89 in 10.0 mi ESE 6.9 mph - N/A   Clear
7:34 AM 41.9 °F 38.2 °F 33.4 °F 72% 29.89 in 10.0 mi ESE 5.8 mph - N/A   Scattered Clouds
7:54 AM 42.4 °F 39.6 °F 33.8 °F 71% 29.89 in 10.0 mi ESE 4.6 mph - N/A   Mostly Cloudy
8:14 AM 43.7 °F 39.7 °F 34.2 °F 69% 29.89 in 10.0 mi SE 6.9 mph - N/A   Overcast
8:35 AM 43.7 °F 39.7 °F 35.2 °F 72% 29.88 in 10.0 mi SE 6.9 mph - N/A Rain Light Rain
8:54 AM 43.2 °F 38.4 °F 36.3 °F 77% 29.86 in 5.0 mi ESE 8.1 mph - N/A Rain Light Rain
9:14 AM 43.0 °F 38.2 °F 37.2 °F 80% 29.85 in 4.0 mi ESE 8.1 mph - N/A Rain Light Rain
9:35 AM 42.4 °F 36.5 °F 37.8 °F 83% 29.82 in 4.0 mi ESE 10.4 mph - N/A   Drizzle
9:54 AM 42.6 °F 37.2 °F 38.5 °F 85% 29.80 in 4.0 mi ESE 9.2 mph - N/A Rain Light Rain
10:14 AM 43.3 °F 36.8 °F 39.4 °F 86% 29.78 in 4.0 mi ESE 12.7 mph - N/A   Overcast
10:35 AM 45.5 °F 42.5 °F 41.7 °F 87% 29.79 in 5.0 mi SE 5.8 mph - N/A   Overcast
10:54 AM 47.1 °F - 43.5 °F 87% 29.79 in 3.0 mi SSE 9.2 mph - N/A Rain Rain
11:15 AM 47.3 °F - 43.7 °F 87% 29.78 in 3.0 mi SSE 8.1 mph - N/A Rain Light Rain
11:34 AM 47.5 °F - 44.2 °F 89% 29.77 in 4.0 mi SSE 8.1 mph - N/A   Overcast
11:54 AM 48.6 °F - 45.3 °F 89% 29.75 in 5.0 mi SSE 9.2 mph 16.1 mph N/A   Overcast
12:15 PM 52.0 °F - 48.2 °F 87% 29.74 in 7.0 mi South 9.2 mph 18.4 mph N/A   Overcast
12:34 PM 52.5 °F - 48.4 °F 86% 29.74 in 7.0 mi South 12.7 mph 20.7 mph N/A   Overcast
12:55 PM 54.7 °F - 50.2 °F 85% 29.72 in 7.0 mi SSE 11.5 mph - N/A   Overcast
1:15 PM 57.6 °F - 51.8 °F 81% 29.70 in 10.0 mi South 15.0 mph 23.0 mph N/A   Overcast
1:34 PM 59.7 °F - 52.9 °F 78% 29.69 in 10.0 mi SSW 12.7 mph - N/A   Overcast
1:55 PM 61.9 °F - 53.4 °F 74% 29.67 in 10.0 mi SSW 15.0 mph 23.0 mph N/A   Overcast
2:15 PM 63.5 °F - 54.0 °F 71% 29.67 in 10.0 mi SW 15.0 mph 28.8 mph N/A   Overcast
2:34 PM 64.2 °F - 51.8 °F 64% 29.69 in 10.0 mi WSW 19.6 mph 25.3 mph N/A   Overcast
2:55 PM 65.7 °F - 49.3 °F 55% 29.70 in 10.0 mi WSW 23.0 mph 33.4 mph N/A   Overcast
3:14 PM 65.5 °F - 49.5 °F 56% 29.71 in 10.0 mi WSW 18.4 mph 31.1 mph N/A   Overcast
3:34 PM 65.7 °F - 49.3 °F 55% 29.72 in 10.0 mi West 17.3 mph 24.2 mph N/A   Overcast
3:55 PM 65.5 °F - 48.4 °F 54% 29.73 in 10.0 mi West 18.4 mph 35.7 mph N/A   Overcast
4:14 PM 66.7 °F - 48.7 °F 52% 29.74 in 10.0 mi West 25.3 mph 42.6 mph N/A   Mostly Cloudy
4:34 PM 65.3 °F - 48.2 °F 54% 29.74 in 10.0 mi West 27.6 mph 38.0 mph N/A   Scattered Clouds
4:55 PM 65.3 °F - 48.0 °F 54% 29.76 in 10.0 mi West 24.2 mph 36.8 mph N/A   Scattered Clouds
5:14 PM 64.0 °F - 48.0 °F 56% 29.77 in 10.0 mi West 26.5 mph 34.5 mph N/A   Scattered Clouds
5:35 PM 62.6 °F - 47.3 °F 57% 29.79 in 10.0 mi West 23.0 mph 32.2 mph N/A   Clear
5:55 PM 61.2 °F - 46.4 °F 58% 29.80 in 10.0 mi West 19.6 mph 33.4 mph N/A   Clear
6:14 PM 59.9 °F - 45.1 °F 58% 29.82 in 10.0 mi West 18.4 mph 27.6 mph N/A   Clear
6:35 PM 57.2 °F - 44.4 °F 62% 29.84 in 10.0 mi NW 13.8 mph 20.7 mph N/A   Clear
6:55 PM 54.7 °F - 43.5 °F 66% 29.86 in 10.0 mi WNW 18.4 mph - N/A   Clear
7:14 PM 53.2 °F - 43.2 °F 69% 29.87 in 10.0 mi WNW 13.8 mph 18.4 mph N/A   Clear
7:35 PM 51.3 °F - 42.3 °F 71% 29.88 in 10.0 mi WNW 13.8 mph 20.7 mph N/A   Clear
7:54 PM 49.6 °F - 41.5 °F 74% 29.89 in 10.0 mi NW 10.4 mph - N/A   Clear
8:14 PM 47.5 °F - 40.3 °F 76% 29.91 in 10.0 mi WNW 10.4 mph - N/A   Clear
8:35 PM 45.3 °F 41.6 °F 39.4 °F 80% 29.92 in 10.0 mi WNW 6.9 mph - N/A   Clear
8:54 PM 44.1 °F 40.1 °F 39.2 °F 83% 29.93 in 10.0 mi NW 6.9 mph - N/A   Clear
9:15 PM 43.2 °F 38.4 °F 38.5 °F 84% 29.93 in 10.0 mi NW 8.1 mph - N/A   Clear
9:35 PM 42.8 °F 39.3 °F 38.3 °F 84% 29.94 in 10.0 mi NNW 5.8 mph - N/A   Clear
9:54 PM 42.1 °F 38.4 °F 38.1 °F 86% 29.95 in 10.0 mi North 5.8 mph - N/A   Clear
10:15 PM 41.7 °F 39.8 °F 37.9 °F 86% 29.95 in 7.0 mi North 3.5 mph - N/A   Clear
10:34 PM 41.2 °F 39.2 °F 37.8 °F 88% 29.96 in 7.0 mi North 3.5 mph - N/A   Clear
10:55 PM 41.0 °F - 37.6 °F 88% 29.97 in 7.0 mi Calm Calm - N/A   Clear
11:15 PM 40.6 °F 38.6 °F 37.8 °F 89% 29.97 in 7.0 mi North 3.5 mph - N/A   Clear
11:34 PM 40.6 °F - 37.8 °F 89% 29.98 in 7.0 mi Calm Calm - N/A   Clear
11:55 PM 40.3 °F - 37.6 °F 90% 30.00 in 7.0 mi Calm Calm - N/A   Clear